Flag for U.S.A. Weather past 2 weeks in Palm Springs, California, U.S.A.

Now
65 °F

Clear.


Feels Like: 65 °F
Forecast: 66 / 90 °F
Wind: No wind

Location: Palm Springs Regional Airport


UV Index: 5 (Moderate)

Visibility: 10 mi


Pressure: 29.88 "Hg

Humidity: 61%

Dew point: 51 °F

Location of Palm SpringsLocation

Historic Weather in Palm Springs

°F

Palm Springs temperature yesterday

Maximum temperature yesterday: 82 °F (at 1:53 PM)
Minimum temperature yesterday: 65 °F (at 4:53 AM)
Average temperature yesterday: 73 °F

Past Weeks' High & Low Weather Summary

 TemperatureHumidityPressure
High99 °F (Apr 10, 2:53 PM)63% (Apr 5, 6:53 AM)30.12 "Hg (Apr 5, 6:53 AM)
Low51 °F (Apr 5, 6:53 AM)1% (Apr 10, 11:53 AM)29.63 "Hg (Apr 16, 5:53 PM)
Average77 °F23%29.88 "Hg
* Reported Apr 4 4:53 AM — Apr 19 4:53 AM, Palm Springs, Weather by CustomWeather, © 2014

Note: Actual official high and low records may vary slightly from our data, if they occured in-between our weather recording intervals... More about our weather records

Advertising

Historic Weather Conditions — Data for Previous 24 hours

 ConditionsComfort  
Time TempWeatherWind HumidityBarometerVisibility
4:53 AM
Apr 19
65 °FClear.No wind61%29.88 "Hg10 mi
3:53 AM67 °FClear.3 mph55%29.88 "Hg10 mi
2:53 AM68 °FClear.7 mph53%29.87 "Hg10 mi
1:53 AM68 °FClear.9 mph55%29.87 "Hg10 mi
12:53 AM70 °FClear.7 mph51%29.88 "Hg10 mi
11:53 PM
Apr 18
71 °FClear.10 mph49%29.88 "Hg10 mi
10:53 PM72 °FClear.6 mph48%29.87 "Hg10 mi
9:53 PM73 °FClear.No wind44%29.86 "Hg10 mi
8:53 PM76 °FPassing clouds.15 mph40%29.83 "Hg10 mi
7:53 PM77 °FPassing clouds.3 mph30%29.82 "Hg10 mi
6:53 PM77 °FScattered clouds.17 mph30%29.80 "Hg10 mi
5:53 PM76 °FBroken clouds.17 mph35%29.80 "Hg10 mi
4:53 PM78 °FBroken clouds.13 mph31%29.80 "Hg10 mi
3:53 PM81 °FScattered clouds.9 mph25%29.80 "Hg10 mi
2:53 PM82 °FScattered clouds.5 mph22%29.81 "Hg10 mi
1:53 PM82 °FSunny.8 mph24%29.83 "Hg10 mi
12:53 PM80 °FScattered clouds.3 mph25%29.85 "Hg10 mi
11:53 AM79 °FPartly sunny.6 mph26%29.86 "Hg10 mi
10:53 AM78 °FScattered clouds.8 mph30%29.87 "Hg10 mi
9:53 AM73 °FSunny.No wind40%29.87 "Hg10 mi
8:53 AM70 °FPartly sunny.No wind51%29.85 "Hg10 mi
7:53 AM68 °FSunny.No wind57%29.83 "Hg10 mi
6:53 AM66 °FClear.3 mph61%29.80 "Hg10 mi
5:53 AM66 °FClear.3 mph63%29.79 "Hg10 mi
Weather by CustomWeather, © 2014

See weather overview